| time (UTC) | temp F | wind direction | speed MPH | gust MPH | rain 1hr in | rain 24hr in | rain mn in | humidity % | barometer mb |
| 20260505184032 | 52 | 137 | 4.0 | 8.0 | 0.00 | 0.00 | 0.00 | 57 | 1011.0 |
| 20260505183531 | 52 | 108 | 6.0 | 11.0 | 0.00 | 0.00 | 0.00 | 58 | 1011.0 |
| 20260505183031 | 51 | 112 | 8.0 | 11.0 | 0.00 | 0.00 | 0.00 | 58 | 1011.0 |
| 20260505182533 | 51 | 81 | 8.0 | 10.0 | 0.00 | 0.00 | 0.00 | 59 | 1011.0 |
| 20260505182031 | 51 | 129 | 14.0 | 18.0 | 0.00 | 0.00 | 0.00 | 59 | 1011.0 |
| 20260505181532 | 51 | 126 | 9.0 | 11.0 | 0.00 | 0.00 | 0.00 | 59 | 1011.0 |
| 20260505181032 | 51 | 114 | 9.0 | 12.0 | 0.00 | 0.00 | 0.00 | 60 | 1011.0 |
| 20260505180533 | 51 | 122 | 8.0 | 11.0 | 0.00 | 0.00 | 0.00 | 59 | 1011.0 |
| 20260505180031 | 51 | 132 | 8.0 | 10.0 | 0.00 | 0.00 | 0.00 | 60 | 1011.0 |
| 20260505175529 | 51 | 102 | 8.0 | 12.0 | 0.00 | 0.00 | 0.00 | 59 | 1011.0 |
| 20260505175032 | 51 | 120 | 6.0 | 7.0 | 0.00 | 0.00 | 0.00 | 59 | 1011.0 |
| 20260505174534 | 51 | 126 | 9.0 | 14.0 | 0.00 | 0.00 | 0.00 | 60 | 1011.0 |
| 20260505174029 | 51 | 143 | 13.0 | 16.0 | 0.00 | 0.00 | 0.00 | 59 | 1011.0 |
| 20260505173531 | 50 | 130 | 9.0 | 12.0 | 0.00 | 0.00 | 0.00 | 60 | 1011.0 |
| 20260505173030 | 50 | 142 | 12.0 | 17.0 | 0.00 | 0.00 | 0.00 | 60 | 1011.0 |
| 20260505172531 | 50 | 124 | 12.0 | 17.0 | 0.00 | 0.00 | 0.00 | 61 | 1011.0 |
| 20260505172031 | 50 | 139 | 9.0 | 13.0 | 0.00 | 0.00 | 0.00 | 63 | 1011.0 |
| 20260505171531 | 50 | 121 | 7.0 | 9.0 | 0.00 | 0.00 | 0.00 | 62 | 1011.0 |
| 20260505171033 | 50 | 131 | 9.0 | 11.0 | 0.00 | 0.00 | 0.00 | 62 | 1011.0 |
| 20260505170532 | 50 | 96 | 8.0 | 13.0 | 0.00 | 0.00 | 0.00 | 63 | 1011.0 |
| 20260505170031 | 50 | 114 | 11.0 | 15.0 | 0.00 | 0.00 | 0.00 | 62 | 1011.0 |
| 20260505165533 | 49 | 122 | 7.0 | 10.0 | 0.00 | 0.00 | 0.00 | 62 | 1011.0 |
| 20260505165034 | 49 | 145 | 9.0 | 15.0 | 0.00 | 0.00 | 0.00 | 63 | 1011.0 |
| 20260505164532 | 49 | 142 | 14.0 | 19.0 | 0.00 | 0.00 | 0.00 | 63 | 1011.0 |
| 20260505164033 | 49 | 130 | 12.0 | 17.0 | 0.00 | 0.00 | 0.00 | 63 | 1011.0 |
| 20260505163542 | 49 | 129 | 12.0 | 17.0 | 0.00 | 0.00 | 0.00 | 64 | 1011.0 |
| 20260505163031 | 49 | 137 | 8.0 | 11.0 | 0.00 | 0.00 | 0.00 | 65 | 1011.0 |
| 20260505162531 | 49 | 154 | 11.0 | 15.0 | 0.00 | 0.00 | 0.00 | 65 | 1011.0 |
| 20260505162031 | 49 | 137 | 12.0 | 18.0 | 0.00 | 0.00 | 0.00 | 65 | 1011.0 |
| 20260505161532 | 49 | 105 | 11.0 | 14.0 | 0.00 | 0.00 | 0.00 | 65 | 1011.0 |
| 20260505161031 | 49 | 98 | 9.0 | 17.0 | 0.00 | 0.00 | 0.00 | 65 | 1011.0 |
| 20260505160533 | 49 | 123 | 9.0 | 14.0 | 0.00 | 0.00 | 0.00 | 65 | 1011.0 |
| 20260505153029 | 49 | 132 | 13.0 | 17.0 | 0.00 | 0.00 | 0.00 | 66 | 1011.0 |
| 20260505152534 | 50 | 132 | 13.0 | 17.0 | 0.00 | 0.00 | 0.00 | 65 | 1011.0 |
| 20260505152031 | 50 | 125 | 10.0 | 12.0 | 0.00 | 0.00 | 0.00 | 65 | 1011.0 |
| 20260505151533 | 50 | 140 | 13.0 | 17.0 | 0.00 | 0.00 | 0.00 | 64 | 1011.0 |
| 20260505151034 | 50 | 143 | 14.0 | 20.0 | 0.00 | 0.00 | 0.00 | 64 | 1011.0 |
| 20260505150534 | 50 | 127 | 8.0 | 11.0 | 0.00 | 0.00 | 0.00 | 65 | 1011.0 |
| 20260505140537 | 51 | 130 | 9.0 | 12.0 | 0.00 | 0.00 | 0.00 | 62 | 1010.0 |
| 20260505125033 | 54 | 134 | 8.0 | 17.0 | 0.00 | 0.00 | 0.00 | 56 | 1009.0 |
| 20260505124533 | 54 | 131 | 8.0 | 10.0 | 0.00 | 0.00 | 0.00 | 57 | 1009.0 |
| 20260505124031 | 54 | 144 | 5.0 | 12.0 | 0.00 | 0.00 | 0.00 | 60 | 1009.0 |
| 20260505123531 | 54 | 53 | 1.0 | 4.0 | 0.00 | 0.00 | 0.00 | 58 | 1009.0 |
| 20260505123031 | 54 | 110 | 4.0 | 5.0 | 0.00 | 0.00 | 0.00 | 57 | 1009.0 |
| 20260505122530 | 54 | 77 | 6.0 | 8.0 | 0.00 | 0.00 | 0.00 | 57 | 1009.0 |
| 20260505122031 | 54 | 121 | 4.0 | 5.0 | 0.00 | 0.00 | 0.00 | 58 | 1009.0 |
| 20260505121531 | 54 | 75 | 4.0 | 4.0 | 0.00 | 0.00 | 0.00 | 61 | 1009.0 |
| 20260505121031 | 54 | 99 | 1.0 | 3.0 | 0.00 | 0.00 | 0.00 | 60 | 1009.0 |
| 20260505120532 | 54 | 95 | 1.0 | 3.0 | 0.00 | 0.00 | 0.00 | 61 | 1009.0 |
| 20260505120031 | 54 | 0 | 0.0 | 0.0 | 0.00 | 0.00 | 0.00 | 58 | 1009.0 |
| 20260505115531 | 54 | 61 | 2.0 | 3.0 | 0.00 | 0.00 | 0.00 | 58 | 1009.0 |
| 20260505115032 | 54 | 42 | 3.0 | 4.0 | 0.00 | 0.00 | 0.00 | 59 | 1009.0 |
| 20260505114532 | 54 | 41 | 2.0 | 3.0 | 0.00 | 0.00 | 0.00 | 58 | 1009.0 |
| 20260505114031 | 54 | 0 | 0.0 | 0.0 | 0.00 | 0.00 | 0.00 | 56 | 1009.0 |
| 20260505113533 | 54 | 132 | 0.0 | 2.0 | 0.00 | 0.00 | 0.00 | 55 | 1009.0 |
| 20260505113032 | 54 | 90 | 7.0 | 8.0 | 0.00 | 0.00 | 0.00 | 54 | 1009.0 |
| 20260505112533 | 54 | 98 | 4.0 | 6.0 | 0.00 | 0.00 | 0.00 | 58 | 1009.0 |
| 20260505112031 | 54 | 126 | 5.0 | 6.0 | 0.00 | 0.00 | 0.00 | 60 | 1009.0 |
| 20260505111532 | 53 | 110 | 6.0 | 9.0 | 0.00 | 0.00 | 0.00 | 62 | 1009.0 |
| 20260505111032 | 53 | 85 | 6.0 | 9.0 | 0.00 | 0.00 | 0.00 | 64 | 1009.0 |
| 20260505110531 | 53 | 94 | 8.0 | 12.0 | 0.00 | 0.00 | 0.00 | 65 | 1009.0 |
| 20260505102031 | 54 | 91 | 5.0 | 10.0 | 0.00 | 0.00 | 0.00 | 71 | 1009.0 |
| 20260505101532 | 54 | 96 | 6.0 | 9.0 | 0.00 | 0.00 | 0.00 | 72 | 1009.0 |
| 20260505101031 | 54 | 115 | 1.0 | 2.0 | 0.00 | 0.00 | 0.00 | 72 | 1009.0 |
| 20260505100529 | 54 | 115 | 2.0 | 4.0 | 0.00 | 0.00 | 0.00 | 72 | 1009.0 |
| 20260505100033 | 54 | 117 | 3.0 | 4.0 | 0.00 | 0.00 | 0.00 | 71 | 1009.0 |
| 20260505095531 | 54 | 90 | 2.0 | 4.0 | 0.00 | 0.00 | 0.00 | 72 | 1009.0 |
| 20260505095031 | 55 | 0 | 0.0 | 0.0 | 0.00 | 0.00 | 0.00 | 73 | 1009.0 |
| 20260505094532 | 55 | 0 | 0.0 | 0.0 | 0.00 | 0.00 | 0.00 | 72 | 1009.0 |
| 20260505094032 | 55 | 0 | 0.0 | 0.0 | 0.00 | 0.00 | 0.00 | 72 | 1009.0 |
| 20260505093531 | 55 | 33 | 0.0 | 1.0 | 0.00 | 0.00 | 0.00 | 72 | 1009.0 |
| 20260505093033 | 55 | 103 | 1.0 | 3.0 | 0.00 | 0.00 | 0.00 | 71 | 1009.0 |
| 20260505092531 | 55 | 135 | 0.0 | 0.0 | 0.00 | 0.00 | 0.00 | 69 | 1009.0 |
| 20260505092030 | 55 | 0 | 0.0 | 0.0 | 0.00 | 0.00 | 0.00 | 66 | 1009.0 |
| 20260505091533 | 55 | 0 | 0.0 | 0.0 | 0.00 | 0.00 | 0.00 | 64 | 1009.0 |
| 20260505091029 | 55 | 0 | 0.0 | 0.0 | 0.00 | 0.00 | 0.00 | 63 | 1009.0 |
| 20260505090530 | 55 | 106 | 0.0 | 1.0 | 0.00 | 0.00 | 0.00 | 60 | 1009.0 |
| 20260505090029 | 55 | 0 | 0.0 | 0.0 | 0.00 | 0.00 | 0.00 | 57 | 1009.0 |
| 20260505085533 | 55 | 0 | 0.0 | 0.0 | 0.00 | 0.00 | 0.00 | 57 | 1009.0 |
| 20260505085031 | 55 | 0 | 0.0 | 0.0 | 0.00 | 0.00 | 0.00 | 58 | 1009.0 |
| 20260505084531 | 55 | 1 | 3.0 | 4.0 | 0.00 | 0.00 | 0.00 | 58 | 1009.0 |
| 20260505084032 | 55 | 0 | 0.0 | 0.0 | 0.00 | 0.00 | 0.00 | 59 | 1009.0 |
| 20260505083530 | 55 | 13 | 0.0 | 0.0 | 0.00 | 0.00 | 0.00 | 59 | 1009.0 |
| 20260505083031 | 55 | 65 | 0.0 | 2.0 | 0.00 | 0.00 | 0.00 | 59 | 1009.0 |
| 20260505082530 | 55 | 0 | 0.0 | 0.0 | 0.00 | 0.00 | 0.00 | 60 | 1009.0 |
| 20260505082029 | 54 | 65 | 2.0 | 3.0 | 0.00 | 0.00 | 0.00 | 60 | 1009.0 |
| 20260505081531 | 54 | 0 | 0.0 | 0.0 | 0.00 | 0.00 | 0.00 | 62 | 1009.0 |
| 20260505081033 | 54 | 20 | 3.0 | 4.0 | 0.00 | 0.00 | 0.00 | 64 | 1009.0 |
| 20260505080530 | 54 | 25 | 3.0 | 4.0 | 0.00 | 0.00 | 0.00 | 65 | 1009.0 |
| 20260505080031 | 54 | 95 | 1.0 | 2.0 | 0.00 | 0.00 | 0.00 | 66 | 1009.0 |
| 20260505075532 | 54 | 60 | 0.0 | 0.0 | 0.00 | 0.00 | 0.00 | 67 | 1009.0 |
| 20260505075031 | 54 | 80 | 4.0 | 4.0 | 0.00 | 0.00 | 0.00 | 69 | 1009.0 |
| 20260505074531 | 54 | 34 | 3.0 | 4.0 | 0.00 | 0.00 | 0.00 | 69 | 1009.0 |
| 20260505074031 | 54 | 0 | 0.0 | 0.0 | 0.00 | 0.00 | 0.00 | 69 | 1009.0 |
| 20260505073529 | 54 | 92 | 5.0 | 6.0 | 0.00 | 0.00 | 0.00 | 68 | 1009.0 |
| 20260505073034 | 54 | 121 | 3.0 | 4.0 | 0.00 | 0.00 | 0.00 | 68 | 1009.0 |
| 20260505072529 | 54 | 103 | 3.0 | 4.0 | 0.00 | 0.00 | 0.00 | 68 | 1009.0 |
| 20260505072031 | 54 | 105 | 4.0 | 6.0 | 0.00 | 0.00 | 0.00 | 68 | 1009.0 |
| 20260505071530 | 54 | 105 | 3.0 | 5.0 | 0.00 | 0.00 | 0.00 | 67 | 1009.0 |
| 20260505071031 | 54 | 110 | 5.0 | 8.0 | 0.00 | 0.00 | 0.00 | 67 | 1009.0 |
| 20260505070530 | 54 | 147 | 8.0 | 9.0 | 0.00 | 0.00 | 0.00 | 66 | 1009.0 |
| 20260505070029 | 55 | 101 | 5.0 | 9.0 | 0.00 | 0.00 | 0.00 | 66 | 1009.0 |
| 20260505065531 | 55 | 81 | 5.0 | 7.0 | 0.00 | 0.00 | 0.00 | 65 | 1010.0 |
| 20260505065029 | 55 | 115 | 6.0 | 9.0 | 0.00 | 0.00 | 0.00 | 64 | 1010.0 |
| 20260505064531 | 55 | 146 | 8.0 | 11.0 | 0.00 | 0.00 | 0.00 | 64 | 1010.0 |
| 20260505064029 | 55 | 145 | 9.0 | 13.0 | 0.00 | 0.00 | 0.00 | 62 | 1010.0 |
| 20260505063531 | 56 | 132 | 13.0 | 17.0 | 0.00 | 0.00 | 0.00 | 61 | 1010.0 |
| 20260505063029 | 56 | 129 | 13.0 | 18.0 | 0.00 | 0.00 | 0.00 | 59 | 1010.0 |
| 20260505062530 | 56 | 143 | 11.0 | 17.0 | 0.00 | 0.00 | 0.00 | 59 | 1010.0 |
| 20260505062030 | 56 | 146 | 11.0 | 14.0 | 0.00 | 0.00 | 0.00 | 61 | 1010.0 |
| 20260505061530 | 56 | 145 | 8.0 | 12.0 | 0.00 | 0.00 | 0.00 | 61 | 1010.0 |
| 20260505061029 | 56 | 164 | 4.0 | 8.0 | 0.00 | 0.00 | 0.00 | 60 | 1010.0 |
| 20260505060530 | 56 | 137 | 3.0 | 6.0 | 0.00 | 0.00 | 0.00 | 60 | 1010.0 |
| 20260505060030 | 56 | 118 | 6.0 | 8.0 | 0.00 | 0.00 | 0.00 | 61 | 1010.0 |
| 20260505055529 | 56 | 133 | 9.0 | 13.0 | 0.00 | 0.00 | 0.00 | 61 | 1010.0 |
| 20260505055030 | 56 | 147 | 10.0 | 14.0 | 0.00 | 0.00 | 0.00 | 61 | 1010.0 |
| 20260505054529 | 56 | 135 | 6.0 | 9.0 | 0.00 | 0.00 | 0.00 | 61 | 1010.0 |
| 20260505054030 | 56 | 145 | 6.0 | 9.0 | 0.00 | 0.00 | 0.00 | 60 | 1010.0 |
| 20260505053530 | 56 | 137 | 11.0 | 16.0 | 0.00 | 0.00 | 0.00 | 60 | 1010.0 |
| 20260505053029 | 56 | 130 | 13.0 | 17.0 | 0.00 | 0.00 | 0.00 | 61 | 1010.0 |
| 20260505052529 | 57 | 139 | 8.0 | 11.0 | 0.00 | 0.00 | 0.00 | 60 | 1010.0 |
| 20260505052030 | 57 | 134 | 11.0 | 15.0 | 0.00 | 0.00 | 0.00 | 60 | 1010.0 |
| 20260505051529 | 57 | 135 | 13.0 | 17.0 | 0.00 | 0.00 | 0.00 | 58 | 1010.0 |
| 20260505051032 | 57 | 147 | 10.0 | 13.0 | 0.00 | 0.00 | 0.00 | 58 | 1010.0 |
| 20260505050531 | 57 | 149 | 8.0 | 13.0 | 0.00 | 0.00 | 0.00 | 60 | 1010.0 |
| 20260505041533 | 58 | 129 | 9.0 | 12.0 | 0.00 | 0.00 | 0.00 | 62 | 1009.0 |
| 20260505041029 | 58 | 124 | 3.0 | 6.0 | 0.00 | 0.00 | 0.00 | 62 | 1009.0 |
| 20260505040530 | 59 | 128 | 6.0 | 8.0 | 0.00 | 0.00 | 0.00 | 62 | 1009.0 |
| 20260505040029 | 59 | 133 | 9.0 | 13.0 | 0.00 | 0.00 | 0.00 | 61 | 1009.0 |
| 20260505035529 | 60 | 131 | 6.0 | 13.0 | 0.00 | 0.00 | 0.00 | 60 | 1008.0 |
| 20260505035030 | 60 | 113 | 6.0 | 10.0 | 0.00 | 0.00 | 0.00 | 60 | 1008.0 |
| 20260505034529 | 60 | 137 | 6.0 | 9.0 | 0.00 | 0.00 | 0.00 | 57 | 1008.0 |
| 20260505034029 | 60 | 126 | 5.0 | 9.0 | 0.00 | 0.00 | 0.00 | 56 | 1008.0 |
| 20260505033530 | 60 | 61 | 2.0 | 4.0 | 0.00 | 0.00 | 0.00 | 55 | 1008.0 |
| 20260505033029 | 60 | 88 | 4.0 | 6.0 | 0.00 | 0.00 | 0.00 | 56 | 1008.0 |
| 20260505032529 | 61 | 87 | 3.0 | 5.0 | 0.00 | 0.00 | 0.00 | 55 | 1008.0 |
| 20260505032029 | 61 | 1 | 3.0 | 7.0 | 0.00 | 0.00 | 0.00 | 54 | 1008.0 |
| 20260505031529 | 61 | 87 | 5.0 | 5.0 | 0.00 | 0.00 | 0.00 | 55 | 1008.0 |
| 20260505031030 | 62 | 97 | 2.0 | 4.0 | 0.00 | 0.00 | 0.00 | 51 | 1008.0 |
| 20260505030530 | 62 | 112 | 3.0 | 6.0 | 0.00 | 0.00 | 0.00 | 43 | 1008.0 |
| 20260505030030 | 63 | 113 | 0.0 | 2.0 | 0.00 | 0.00 | 0.00 | 42 | 1008.0 |
| 20260505025530 | 63 | 0 | 0.0 | 0.0 | 0.00 | 0.00 | 0.00 | 41 | 1007.0 |
| 20260505025029 | 63 | 0 | 0.0 | 0.0 | 0.00 | 0.00 | 0.00 | 40 | 1007.0 |
| 20260505024533 | 63 | 0 | 0.0 | 0.0 | 0.00 | 0.00 | 0.00 | 40 | 1007.0 |
| 20260505024030 | 63 | 301 | 1.0 | 4.0 | 0.00 | 0.00 | 0.00 | 40 | 1007.0 |
| 20260505023529 | 64 | 0 | 0.0 | 0.0 | 0.00 | 0.00 | 0.00 | 41 | 1007.0 |
| 20260505023030 | 64 | 0 | 0.0 | 0.0 | 0.00 | 0.00 | 0.00 | 40 | 1007.0 |
| 20260505022529 | 64 | 14 | 0.0 | 2.0 | 0.00 | 0.00 | 0.00 | 40 | 1007.0 |
| 20260505022029 | 64 | 2 | 0.0 | 0.0 | 0.00 | 0.00 | 0.00 | 40 | 1007.0 |
| 20260505021529 | 64 | 138 | 4.0 | 6.0 | 0.00 | 0.00 | 0.00 | 40 | 1007.0 |
| 20260505021030 | 64 | 195 | 3.0 | 8.0 | 0.00 | 0.00 | 0.00 | 39 | 1007.0 |
| 20260505020529 | 65 | 208 | 3.0 | 4.0 | 0.00 | 0.00 | 0.00 | 39 | 1007.0 |
| 20260505020033 | 65 | 345 | 2.0 | 5.0 | 0.00 | 0.00 | 0.00 | 39 | 1007.0 |
| 20260505015530 | 65 | 171 | 7.0 | 11.0 | 0.00 | 0.00 | 0.00 | 39 | 1007.0 |
| 20260505015029 | 65 | 164 | 7.0 | 9.0 | 0.00 | 0.00 | 0.00 | 39 | 1007.0 |
| 20260505014530 | 65 | 345 | 5.0 | 7.0 | 0.00 | 0.00 | 0.00 | 39 | 1007.0 |
| 20260505014030 | 65 | 338 | 3.0 | 6.0 | 0.00 | 0.00 | 0.00 | 39 | 1007.0 |
| 20260505013048 | 65 | 170 | 6.0 | 13.0 | 0.00 | 0.00 | 0.00 | 39 | 1007.0 |
| 20260505012529 | 65 | 144 | 7.0 | 11.0 | 0.00 | 0.00 | 0.00 | 39 | 1007.0 |
| 20260505012030 | 65 | 148 | 13.0 | 16.0 | 0.00 | 0.00 | 0.00 | 38 | 1007.0 |
| 20260505011530 | 65 | 168 | 5.0 | 10.0 | 0.00 | 0.00 | 0.00 | 39 | 1007.0 |
| 20260505011029 | 65 | 148 | 7.0 | 10.0 | 0.00 | 0.00 | 0.00 | 39 | 1007.0 |
| 20260505010530 | 65 | 158 | 10.0 | 17.0 | 0.00 | 0.00 | 0.00 | 39 | 1007.0 |
| 20260505010029 | 66 | 144 | 17.0 | 21.0 | 0.00 | 0.00 | 0.00 | 39 | 1007.0 |
| 20260505005529 | 67 | 138 | 9.0 | 14.0 | 0.00 | 0.00 | 0.00 | 36 | 1007.0 |
| 20260505005029 | 68 | 148 | 11.0 | 16.0 | 0.00 | 0.00 | 0.00 | 30 | 1007.0 |
| 20260505004529 | 68 | 142 | 2.0 | 7.0 | 0.00 | 0.00 | 0.00 | 30 | 1007.0 |
| 20260505004030 | 68 | 158 | 8.0 | 13.0 | 0.00 | 0.00 | 0.00 | 30 | 1007.0 |
| 20260505003535 | 68 | 157 | 3.0 | 8.0 | 0.00 | 0.00 | 0.00 | 31 | 1007.0 |
| 20260505003030 | 68 | 63 | 1.0 | 4.0 | 0.00 | 0.00 | 0.00 | 31 | 1007.0 |
| 20260505002530 | 68 | 344 | 2.0 | 6.0 | 0.00 | 0.00 | 0.00 | 31 | 1007.0 |
| 20260505002029 | 69 | 306 | 4.0 | 9.0 | 0.00 | 0.00 | 0.00 | 31 | 1007.0 |
| 20260505001529 | 69 | 215 | 3.0 | 8.0 | 0.00 | 0.00 | 0.00 | 30 | 1007.0 |
| 20260505001029 | 69 | 0 | 0.0 | 0.0 | 0.00 | 0.00 | 0.00 | 32 | 1007.0 |
| 20260505000530 | 69 | 303 | 0.0 | 4.0 | 0.00 | 0.00 | 0.00 | 31 | 1007.0 |
| 20260505000029 | 70 | 329 | 0.0 | 1.0 | 0.00 | 0.00 | 0.00 | 30 | 1007.0 |
| 20260504235529 | 70 | 341 | 2.0 | 5.0 | 0.00 | 0.00 | 0.00 | 29 | 1007.0 |
| 20260504235029 | 69 | 151 | 0.0 | 2.0 | 0.00 | 0.00 | 0.00 | 31 | 1007.0 |
| 20260504234529 | 69 | 216 | 1.0 | 5.0 | 0.00 | 0.00 | 0.00 | 31 | 1007.0 |
| 20260504234029 | 69 | 306 | 5.0 | 12.0 | 0.00 | 0.00 | 0.00 | 31 | 1007.0 |
| 20260504233530 | 68 | 354 | 1.0 | 4.0 | 0.00 | 0.00 | 0.00 | 31 | 1007.0 |
| 20260504233029 | 68 | 335 | 3.0 | 6.0 | 0.00 | 0.00 | 0.00 | 32 | 1007.0 |
| 20260504232529 | 68 | 30 | 6.0 | 10.0 | 0.00 | 0.00 | 0.00 | 33 | 1007.0 |
| 20260504232030 | 69 | 141 | 6.0 | 11.0 | 0.00 | 0.00 | 0.00 | 33 | 1007.0 |
| 20260504231529 | 68 | 65 | 7.0 | 12.0 | 0.00 | 0.00 | 0.00 | 34 | 1007.0 |
| 20260504231031 | 68 | 107 | 5.0 | 11.0 | 0.00 | 0.00 | 0.00 | 34 | 1007.0 |
| 20260504230529 | 68 | 85 | 11.0 | 16.0 | 0.00 | 0.00 | 0.00 | 34 | 1007.0 |
| 20260504230030 | 68 | 72 | 6.0 | 11.0 | 0.00 | 0.00 | 0.00 | 32 | 1007.0 |
| 20260504225531 | 68 | 89 | 8.0 | 11.0 | 0.00 | 0.00 | 0.00 | 33 | 1007.0 |
| 20260504225029 | 69 | 75 | 11.0 | 15.0 | 0.00 | 0.00 | 0.00 | 32 | 1007.0 |
| 20260504224530 | 69 | 89 | 5.0 | 12.0 | 0.00 | 0.00 | 0.00 | 32 | 1007.0 |
| 20260504224029 | 69 | 85 | 11.0 | 19.0 | 0.00 | 0.00 | 0.00 | 33 | 1007.0 |
| 20260504223530 | 69 | 79 | 9.0 | 16.0 | 0.00 | 0.00 | 0.00 | 32 | 1007.0 |
| 20260504223031 | 69 | 83 | 6.0 | 11.0 | 0.00 | 0.00 | 0.00 | 32 | 1007.0 |
| 20260504222533 | 69 | 78 | 15.0 | 23.0 | 0.00 | 0.00 | 0.00 | 32 | 1007.0 |
| 20260504222030 | 69 | 64 | 9.0 | 17.0 | 0.00 | 0.00 | 0.00 | 32 | 1007.0 |
| 20260504221529 | 69 | 80 | 11.0 | 20.0 | 0.00 | 0.00 | 0.00 | 32 | 1007.0 |
| 20260504221029 | 70 | 89 | 13.0 | 28.0 | 0.00 | 0.00 | 0.00 | 31 | 1007.0 |
| 20260504220529 | 70 | 137 | 4.0 | 7.0 | 0.00 | 0.00 | 0.00 | 32 | 1007.0 |
| 20260504220029 | 70 | 309 | 3.0 | 6.0 | 0.00 | 0.00 | 0.00 | 29 | 1007.0 |
| 20260504215530 | 69 | 8 | 4.0 | 7.0 | 0.00 | 0.00 | 0.00 | 31 | 1007.0 |
| 20260504215029 | 69 | 316 | 5.0 | 10.0 | 0.00 | 0.00 | 0.00 | 31 | 1007.0 |
| 20260504214530 | 69 | 241 | 1.0 | 6.0 | 0.00 | 0.00 | 0.00 | 31 | 1007.0 |
| 20260504214030 | 69 | 305 | 6.0 | 12.0 | 0.00 | 0.00 | 0.00 | 32 | 1007.0 |
| 20260504213529 | 70 | 300 | 7.0 | 12.0 | 0.00 | 0.00 | 0.00 | 31 | 1007.0 |
| 20260504213031 | 70 | 285 | 11.0 | 18.0 | 0.00 | 0.00 | 0.00 | 31 | 1007.0 |
| 20260504212530 | 70 | 269 | 8.0 | 16.0 | 0.00 | 0.00 | 0.00 | 30 | 1007.0 |
| 20260504212032 | 71 | 283 | 4.0 | 8.0 | 0.00 | 0.00 | 0.00 | 30 | 1007.0 |
| 20260504211530 | 71 | 45 | 1.0 | 6.0 | 0.00 | 0.00 | 0.00 | 30 | 1007.0 |
| 20260504211029 | 72 | 164 | 6.0 | 14.0 | 0.00 | 0.00 | 0.00 | 29 | 1007.0 |
| 20260504210530 | 72 | 158 | 8.0 | 15.0 | 0.00 | 0.00 | 0.00 | 29 | 1007.0 |
| 20260504210029 | 72 | 36 | 4.0 | 10.0 | 0.00 | 0.00 | 0.00 | 30 | 1007.0 |
| 20260504205530 | 73 | 165 | 6.0 | 17.0 | 0.00 | 0.00 | 0.00 | 29 | 1007.0 |
| 20260504205032 | 74 | 126 | 4.0 | 8.0 | 0.00 | 0.00 | 0.00 | 29 | 1007.0 |
| 20260504204530 | 74 | 146 | 6.0 | 12.0 | 0.00 | 0.00 | 0.00 | 27 | 1007.0 |
| 20260504204030 | 73 | 209 | 5.0 | 9.0 | 0.00 | 0.00 | 0.00 | 28 | 1007.0 |
| 20260504203529 | 72 | 152 | 5.0 | 11.0 | 0.00 | 0.00 | 0.00 | 29 | 1007.0 |
| 20260504203031 | 72 | 145 | 9.0 | 15.0 | 0.00 | 0.00 | 0.00 | 25 | 1007.0 |
| 20260504202530 | 71 | 145 | 11.0 | 18.0 | 0.00 | 0.00 | 0.00 | 28 | 1007.0 |
| 20260504202030 | 71 | 178 | 6.0 | 16.0 | 0.00 | 0.00 | 0.00 | 30 | 1008.0 |
| 20260504201530 | 71 | 345 | 2.0 | 4.0 | 0.00 | 0.00 | 0.00 | 28 | 1008.0 |
| 20260504201029 | 72 | 310 | 4.0 | 8.0 | 0.00 | 0.00 | 0.00 | 25 | 1008.0 |
| 20260504200529 | 72 | 232 | 2.0 | 3.0 | 0.00 | 0.00 | 0.00 | 27 | 1008.0 |
| 20260504200029 | 72 | 140 | 2.0 | 6.0 | 0.00 | 0.00 | 0.00 | 27 | 1008.0 |
| 20260504195529 | 71 | 111 | 4.0 | 9.0 | 0.00 | 0.00 | 0.00 | 30 | 1008.0 |
| 20260504195031 | 72 | 175 | 6.0 | 9.0 | 0.00 | 0.00 | 0.00 | 29 | 1008.0 |
| 20260504194529 | 71 | 228 | 3.0 | 4.0 | 0.00 | 0.00 | 0.00 | 30 | 1008.0 |
| 20260504194029 | 71 | 152 | 13.0 | 19.0 | 0.00 | 0.00 | 0.00 | 30 | 1008.0 |
| 20260504193530 | 71 | 79 | 1.0 | 4.0 | 0.00 | 0.00 | 0.00 | 29 | 1008.0 |
| 20260504193030 | 70 | 151 | 9.0 | 13.0 | 0.00 | 0.00 | 0.00 | 31 | 1008.0 |
| 20260504192530 | 70 | 182 | 7.0 | 12.0 | 0.00 | 0.00 | 0.00 | 30 | 1008.0 |
| 20260504192030 | 71 | 154 | 11.0 | 17.0 | 0.00 | 0.00 | 0.00 | 30 | 1008.0 |
| 20260504191529 | 70 | 160 | 8.0 | 12.0 | 0.00 | 0.00 | 0.00 | 30 | 1008.0 |
| 20260504191029 | 70 | 147 | 8.0 | 15.0 | 0.00 | 0.00 | 0.00 | 32 | 1008.0 |
| 20260504190530 | 70 | 169 | 7.0 | 11.0 | 0.00 | 0.00 | 0.00 | 31 | 1008.0 |
| 20260504190030 | 69 | 136 | 3.0 | 5.0 | 0.00 | 0.00 | 0.00 | 32 | 1008.0 |
| 20260504185530 | 70 | 151 | 13.0 | 16.0 | 0.00 | 0.00 | 0.00 | 30 | 1009.0 |
| 20260504185030 | 70 | 153 | 9.0 | 13.0 | 0.00 | 0.00 | 0.00 | 32 | 1009.0 |
| 20260504184529 | 70 | 163 | 8.0 | 12.0 | 0.00 | 0.00 | 0.00 | 32 | 1009.0 |